Location: ???????
(38.3360°N, 23.6977°E)
Time: 23:23:53
(UTC+00:00)

RESURS DK-1 - Pass Details

Date: 17 November 2025
Orbit: 524 x 535 km, 69.9° (Epoch: 09 December)

Event Time Altitude Azimuth Distance (km) Brightness Sun altitude
Rises 15:30:26 0° 351° (N) 2,693 5.7 -4.3°
Reaches altitude 10° 15:33:08 10° 9° (N) 1,797 4.7 -4.8°
Maximum altitude 15:36:03 19° 56° (ENE) 1,310 3.7 -5.3°
Drops below altitude 10° 15:38:57 10° 103° (ESE) 1,787 4.4 -5.9°
Sets 15:41:37 0° 122° (ESE) 2,672 5.4 -6.4°
